Location: Broletto
(44.6000°N, 10.5833°E)
Time: 06:56:30
(UTC+00:00)

USA 229 - Pass Details

Date: 18 April 2021
Orbit: 958 x 1254 km, 63.4° (Epoch: 23 April)

Event Time Altitude Azimuth Distance (km) Brightness Sun altitude
Rises 21:34:47 0° 323° (NW) 3,935 7.8 -29.6°
Reaches altitude 10° 21:37:32 10° 329° (NNW) 3,018 7.0 -29.9°
Maximum altitude 21:44:31 48° 43° (NE) 1,518 4.5 -30.5°
Enters shadow 21:46:15 41° 78° (ENE) 1,665 4.5 -30.6°
